Location: Home
(42.5358°N, 72.7383°W)
Time: 00:11:02
(UTC-05:00)

Vanguard 3 - Pass Details

Date: 06 December 2021
Orbit: 508 x 3260 km, 33.3° (Epoch: 21 January)

Event Time Altitude Azimuth Distance (km) Brightness Sun altitude
Rises 23:35:34 0° 190° (S) 5,990 - -70.0°
Reaches altitude 10° 23:40:41 10° 176° (S) 5,392 - -70.1°
Maximum altitude 23:52:03 22° 134° (SE) 5,052 - -70.0°
Exits shadow 00:01:57 14° 100° (E) 5,833 11.4 -69.7°
Drops below altitude 10° 00:04:51 10° 93° (E) 6,192 11.6 -69.6°
Sets 00:11:15 0° 81° (E) 7,100 12.1 -69.2°
